Location: Chakepay
(13.3931°S, 72.1925°W)
Time: 04:53:40
(UTC+00:00)

Meteor 2-10 Rocket - Pass Details

Date: 15 November 2019
Orbit: 734 x 884 km, 81.2° (Epoch: 15 December)

Event Time Altitude Azimuth Distance (km) Brightness Sun altitude
Rises 09:11:42 0° 355° (N) 3,411 6.6 -14.4°
Reaches altitude 10° 09:14:05 10° 355° (N) 2,496 5.9 -13.8°
Maximum altitude 09:19:48 89° 265° (W) 885 3.8 -12.6°
Drops below altitude 10° 09:25:40 10° 175° (S) 2,555 6.6 -11.3°
Sets 09:28:08 0° 174° (S) 3,497 7.3 -10.7°
